| time (UTC) | temp F | wind direction | speed MPH | gust MPH | rain 1hr in | rain 24hr in | rain mn in | humidity % | barometer mb |
| 20260904231604 | 76 | 209 | 0.0 | 1.0 | 0.00 | 0.20 | 0.15 | 87 | 1007.7 |
| 20260904230059 | 76 | 246 | 0.0 | 2.0 | 0.00 | 0.96 | 0.15 | 86 | 1007.6 |
| 20260904224608 | 76 | 200 | 0.0 | 3.0 | 0.00 | 0.96 | 0.15 | 87 | 1007.2 |
| 20260904223146 | 76 | 59 | 2.0 | 3.0 | 0.00 | 0.96 | 0.15 | 87 | 1006.7 |
| 20260904221501 | 76 | 239 | 0.0 | 2.0 | 0.00 | 0.96 | 0.15 | 87 | 1007.2 |
| 20260904220156 | 76 | 239 | 0.0 | 2.0 | 0.00 | 0.96 | 0.15 | 84 | 1007.2 |
| 20260904214522 | 76 | 247 | 0.0 | 2.0 | 0.00 | 0.96 | 0.15 | 85 | 1006.7 |
| 20260904213059 | 77 | 205 | 0.0 | 2.0 | 0.00 | 0.96 | 0.15 | 84 | 1006.6 |
| 20260904211639 | 76 | 163 | 0.0 | 2.0 | 0.00 | 0.96 | 0.15 | 84 | 1006.6 |
| 20260904210031 | 76 | 95 | 1.0 | 2.0 | 0.00 | 0.96 | 0.15 | 83 | 1006.3 |
| 20260904204602 | 76 | 95 | 0.0 | 3.0 | 0.00 | 0.96 | 0.15 | 84 | 1006.1 |
| 20260904203141 | 76 | 112 | 2.0 | 4.0 | 0.00 | 0.96 | 0.15 | 85 | 1005.6 |
| 20260904201522 | 76 | 120 | 3.0 | 8.0 | 0.00 | 0.96 | 0.15 | 83 | 1005.6 |
| 20260904200048 | 76 | 156 | 1.0 | 5.0 | 0.00 | 0.96 | 0.15 | 85 | 1006.0 |
| 20260904194641 | 76 | 200 | 2.0 | 6.0 | 0.00 | 0.96 | 0.15 | 86 | 1006.6 |
| 20260904193035 | 75 | 218 | 1.0 | 4.0 | 0.00 | 0.96 | 0.15 | 87 | 1007.4 |
| 20260904191558 | 75 | 173 | 1.0 | 3.0 | 0.00 | 0.96 | 0.15 | 88 | 1007.7 |
| 20260904190037 | 73 | 94 | 2.0 | 3.0 | 0.00 | 0.96 | 0.15 | 88 | 1007.9 |
| 20260904184615 | 73 | 100 | 1.0 | 3.0 | 0.00 | 0.96 | 0.15 | 90 | 1007.6 |
| 20260904183035 | 72 | 167 | 2.0 | 8.0 | 0.02 | 0.96 | 0.15 | 92 | 1007.0 |
| 20260904181556 | 71 | 195 | 2.0 | 6.0 | 0.02 | 0.96 | 0.15 | 92 | 1007.3 |
| 20260904180135 | 71 | 168 | 2.0 | 5.0 | 0.02 | 0.96 | 0.15 | 92 | 1008.1 |
| 20260904174516 | 72 | 266 | 3.0 | 7.0 | 0.02 | 0.96 | 0.15 | 91 | 1010.1 |
| 20260904173054 | 73 | 261 | 1.0 | 8.0 | 0.00 | 0.94 | 0.13 | 91 | 1010.4 |
| 20260904171636 | 74 | 194 | 3.0 | 8.0 | 0.00 | 0.94 | 0.13 | 90 | 1010.4 |
| 20260904170052 | 74 | 298 | 1.0 | 4.0 | 0.00 | 0.94 | 0.13 | 91 | 1010.2 |
| 20260904164622 | 75 | 275 | 1.0 | 4.0 | 0.00 | 0.94 | 0.13 | 91 | 1009.8 |
| 20260904163154 | 74 | 234 | 2.0 | 9.0 | 0.02 | 0.94 | 0.13 | 94 | 1009.8 |
| 20260904161530 | 73 | 279 | 1.0 | 4.0 | 0.02 | 0.94 | 0.13 | 93 | 1009.9 |
| 20260904160108 | 73 | 279 | 2.0 | 5.0 | 0.02 | 0.94 | 0.13 | 94 | 1010.1 |
| 20260904154540 | 71 | 300 | 1.0 | 7.0 | 0.02 | 0.94 | 0.13 | 95 | 1010.3 |
| 20260904153109 | 71 | 186 | 0.0 | 3.0 | 0.00 | 0.92 | 0.11 | 94 | 1010.0 |
| 20260904151512 | 72 | 155 | 0.0 | 3.0 | 0.00 | 0.92 | 0.11 | 94 | 1009.8 |
| 20260904144642 | 70 | 52 | 0.0 | 3.0 | 0.01 | 0.92 | 0.11 | 95 | 1008.5 |
| 20260904143014 | 70 | 63 | 1.0 | 4.0 | 0.03 | 0.92 | 0.11 | 95 | 1008.8 |
| 20260904141559 | 70 | 355 | 1.0 | 3.0 | 0.04 | 0.92 | 0.11 | 96 | 1008.7 |
| 20260904140040 | 69 | 101 | 1.0 | 4.0 | 0.04 | 0.91 | 0.10 | 96 | 1008.4 |
| 20260904134613 | 69 | 159 | 2.0 | 7.0 | 0.06 | 0.91 | 0.10 | 96 | 1008.9 |
| 20260904133037 | 69 | 153 | 2.0 | 3.0 | 0.05 | 0.89 | 0.08 | 96 | 1008.7 |
| 20260904131600 | 68 | 317 | 1.0 | 4.0 | 0.06 | 0.88 | 0.07 | 96 | 1009.2 |
| 20260904130134 | 68 | 203 | 1.0 | 2.0 | 0.05 | 0.87 | 0.06 | 96 | 1009.1 |
| 20260904124654 | 68 | 217 | 1.0 | 4.0 | 0.04 | 0.85 | 0.04 | 96 | 1009.2 |
| 20260904123022 | 68 | 212 | 2.0 | 4.0 | 0.03 | 0.84 | 0.03 | 96 | 1009.4 |
| 20260904121619 | 68 | 225 | 1.0 | 2.0 | 0.01 | 0.82 | 0.01 | 96 | 1009.1 |
| 20260904120155 | 68 | 66 | 0.0 | 2.0 | 0.01 | 0.82 | 0.01 | 96 | 1008.7 |
| 20260904114507 | 67 | 115 | 0.0 | 2.0 | 0.00 | 0.82 | 0.00 | 96 | 1008.5 |
| 20260904113056 | 67 | 266 | 0.0 | 2.0 | 0.00 | 0.82 | 0.00 | 96 | 1008.9 |
| 20260904111643 | 67 | 245 | 0.0 | 2.0 | 0.00 | 0.82 | 0.00 | 96 | 1008.7 |
| 20260904110015 | 67 | 133 | 0.0 | 2.0 | 0.00 | 1.05 | 0.00 | 96 | 1008.1 |
| 20260904104600 | 67 | 133 | 0.0 | 2.0 | 0.00 | 1.05 | 0.00 | 96 | 1008.0 |
| 20260904103140 | 66 | 136 | 0.0 | 2.0 | 0.00 | 1.05 | 0.00 | 96 | 1007.9 |
| 20260904101558 | 67 | 121 | 0.0 | 3.0 | 0.00 | 1.05 | 0.00 | 96 | 1007.8 |
| 20260904100135 | 67 | 111 | 0.0 | 2.0 | 0.00 | 1.05 | 0.00 | 96 | 1007.9 |
| 20260904094649 | 67 | 134 | 0.0 | 2.0 | 0.00 | 1.05 | 0.00 | 96 | 1007.9 |
| 20260904093147 | 67 | 179 | 0.0 | 2.0 | 0.00 | 1.05 | 0.00 | 96 | 1008.1 |
| 20260904091522 | 67 | 179 | 0.0 | 2.0 | 0.00 | 1.05 | 0.00 | 96 | 1008.1 |
| 20260904090052 | 67 | 158 | 0.0 | 2.0 | 0.00 | 1.05 | 0.00 | 96 | 1008.0 |
| 20260904084601 | 67 | 158 | 0.0 | 2.0 | 0.00 | 1.05 | 0.00 | 96 | 1007.7 |
| 20260904083139 | 67 | 52 | 0.0 | 2.0 | 0.00 | 1.05 | 0.00 | 96 | 1007.7 |
| 20260904081636 | 67 | 101 | 0.0 | 3.0 | 0.00 | 1.05 | 0.00 | 96 | 1007.5 |
| 20260904080014 | 67 | 360 | 0.0 | 2.0 | 0.00 | 1.05 | 0.00 | 96 | 1007.7 |
| 20260904074603 | 67 | 360 | 0.0 | 0.0 | 0.00 | 1.05 | 0.00 | 96 | 1007.9 |
| 20260904073136 | 68 | 360 | 0.0 | 2.0 | 0.00 | 1.05 | 0.00 | 96 | 1008.0 |
| 20260904071547 | 68 | 360 | 0.0 | 2.0 | 0.00 | 1.05 | 0.00 | 96 | 1008.2 |
| 20260904070116 | 68 | 360 | 0.0 | 0.0 | 0.00 | 1.05 | 0.00 | 96 | 1008.1 |
| 20260904064531 | 68 | 360 | 0.0 | 2.0 | 0.00 | 1.05 | 0.00 | 95 | 1008.1 |
| 20260904063055 | 68 | 296 | 0.0 | 0.0 | 0.00 | 1.05 | 0.00 | 95 | 1008.2 |
| 20260904061535 | 68 | 296 | 0.0 | 2.0 | 0.00 | 1.05 | 0.00 | 95 | 1008.3 |
| 20260904060053 | 68 | 360 | 0.0 | 2.0 | 0.00 | 1.05 | 0.00 | 95 | 1008.2 |
| 20260904054636 | 68 | 338 | 0.0 | 2.0 | 0.00 | 1.05 | 0.00 | 95 | 1008.3 |
| 20260904053017 | 68 | 337 | 1.0 | 6.0 | 0.00 | 1.05 | 0.00 | 95 | 1008.2 |
| 20260904051627 | 68 | 206 | 0.0 | 2.0 | 0.00 | 1.05 | 0.00 | 94 | 1008.0 |
| 20260904050028 | 68 | 163 | 1.0 | 2.0 | 0.00 | 1.05 | 0.00 | 94 | 1008.0 |
| 20260904044559 | 69 | 134 | 2.0 | 4.0 | 0.00 | 1.05 | 0.00 | 94 | 1008.1 |
| 20260904043110 | 69 | 140 | 2.0 | 4.0 | 0.00 | 1.05 | 0.00 | 94 | 1008.1 |
| 20260904041507 | 69 | 145 | 2.0 | 5.0 | 0.00 | 1.05 | 0.00 | 94 | 1008.0 |
| 20260904040050 | 69 | 137 | 2.0 | 4.0 | 0.00 | 1.05 | 0.00 | 94 | 1008.0 |
| 20260904034639 | 69 | 139 | 3.0 | 5.0 | 0.00 | 1.05 | 1.05 | 94 | 1007.9 |
| 20260904033020 | 69 | 34 | 0.0 | 2.0 | 0.00 | 1.05 | 1.05 | 95 | 1007.9 |
| 20260904031545 | 68 | 143 | 1.0 | 3.0 | 0.00 | 1.05 | 1.05 | 94 | 1007.7 |
| 20260904030110 | 69 | 195 | 2.0 | 6.0 | 0.00 | 1.05 | 1.05 | 94 | 1007.6 |
| 20260904024643 | 69 | 144 | 2.0 | 5.0 | 0.00 | 1.05 | 1.05 | 94 | 1007.6 |
| 20260904023039 | 69 | 152 | 2.0 | 5.0 | 0.00 | 1.05 | 1.05 | 94 | 1007.6 |
| 20260904021606 | 69 | 157 | 2.0 | 7.0 | 0.00 | 1.05 | 1.05 | 94 | 1007.4 |
| 20260904020145 | 69 | 157 | 2.0 | 5.0 | 0.00 | 1.05 | 1.05 | 94 | 1007.4 |
| 20260904014506 | 69 | 155 | 3.0 | 7.0 | 0.00 | 1.05 | 1.05 | 95 | 1007.3 |
| 20260904013049 | 69 | 151 | 2.0 | 8.0 | 0.00 | 1.05 | 1.05 | 95 | 1007.1 |
| 20260904011610 | 69 | 146 | 2.0 | 3.0 | 0.00 | 1.05 | 1.05 | 95 | 1007.3 |
| 20260904010148 | 69 | 138 | 3.0 | 5.0 | 0.00 | 1.05 | 1.05 | 94 | 1007.2 |
| 20260904004519 | 69 | 157 | 1.0 | 4.0 | 0.00 | 1.05 | 1.05 | 94 | 1007.4 |
| 20260904003048 | 69 | 155 | 1.0 | 5.0 | 0.00 | 1.05 | 1.05 | 94 | 1007.8 |
| 20260904001619 | 69 | 153 | 1.0 | 5.0 | 0.04 | 1.05 | 1.05 | 94 | 1007.9 |
| 20260904000032 | 69 | 126 | 3.0 | 7.0 | 0.05 | 1.05 | 1.05 | 94 | 1007.8 |
| 20260903234623 | 69 | 105 | 2.0 | 7.0 | 0.15 | 1.05 | 1.05 | 94 | 1007.9 |
| 20260903233049 | 69 | 44 | 1.0 | 4.0 | 0.31 | 1.05 | 1.05 | 94 | 1008.4 |